Time,TemperatureF,DewpointF,PressureIn,WindDirection,WindDirectionDegrees,WindSpeedMPH,WindSpeedGustMPH,Humidity,HourlyPrecipIn,Conditions,Clouds,dailyrainin,SoftwareType,DateUTC
2013-03-10 00:12:00,45.2,26.0,30.29,ENE,70,0.0,0.0,47,0.00,,,0.00,weatherlink.com 1.10,2013-03-10 05:12:00,
2013-03-10 00:27:00,44.9,26.0,30.29,ENE,70,0.0,0.0,48,0.00,,,0.00,weatherlink.com 1.10,2013-03-10 05:27:00,
2013-03-10 00:42:00,44.3,26.0,30.29,ENE,70,0.0,0.0,49,0.00,,,0.00,weatherlink.com 1.10,2013-03-10 05:42:00,
2013-03-10 00:57:00,43.7,26.0,30.29,ENE,70,0.0,0.0,51,0.00,,,0.00,weatherlink.com 1.10,2013-03-10 05:57:00,
2013-03-10 01:12:00,43.2,26.0,30.28,ENE,70,0.0,0.0,51,0.00,,,0.00,weatherlink.com 1.10,2013-03-10 06:12:00,
2013-03-10 01:27:00,42.9,27.0,30.29,ENE,70,0.0,0.0,53,0.00,,,0.00,weatherlink.com 1.10,2013-03-10 06:27:00,
2013-03-10 01:42:00,41.8,27.0,30.28,ENE,70,0.0,0.0,57,0.00,,,0.00,weatherlink.com 1.10,2013-03-10 06:42:00,
2013-03-10 01:57:00,40.8,28.0,30.28,ENE,70,0.0,0.0,60,0.00,,,0.00,weatherlink.com 1.10,2013-03-10 06:57:00,
2013-03-10 03:13:00,40.1,28.0,30.27,ENE,70,0.0,1.0,63,0.00,,,0.00,weatherlink.com 1.10,2013-03-10 07:13:00,
2013-03-10 03:28:00,40.2,28.0,30.27,NE,51,1.0,1.0,62,0.00,,,0.00,weatherlink.com 1.10,2013-03-10 07:28:00,
2013-03-10 03:43:00,40.4,27.0,30.26,NE,51,0.0,1.0,59,0.00,,,0.00,weatherlink.com 1.10,2013-03-10 07:43:00,
2013-03-10 03:58:00,40.5,27.0,30.26,NE,51,0.0,1.0,58,0.00,,,0.00,weatherlink.com 1.10,2013-03-10 07:58:00,
2013-03-10 04:13:00,39.9,27.0,30.26,NE,42,0.0,1.0,60,0.00,,,0.00,weatherlink.com 1.10,2013-03-10 08:13:00,
2013-03-10 04:28:00,38.6,28.0,30.25,NE,42,0.0,1.0,65,0.00,,,0.00,weatherlink.com 1.10,2013-03-10 08:28:00,
2013-03-10 04:43:00,38.0,27.0,30.25,NE,42,0.0,1.0,66,0.00,,,0.00,weatherlink.com 1.10,2013-03-10 08:43:00,
2013-03-10 04:59:00,37.9,27.0,30.25,NE,42,0.0,1.0,65,0.00,,,0.00,weatherlink.com 1.10,2013-03-10 08:59:00,
2013-03-10 05:13:00,38.3,26.0,30.25,NE,42,0.0,0.0,62,0.00,,,0.00,weatherlink.com 1.10,2013-03-10 09:13:00,
2013-03-10 05:28:00,37.9,28.0,30.26,NNW,337,1.0,2.0,67,0.00,,,0.00,weatherlink.com 1.10,2013-03-10 09:28:00,
2013-03-10 05:43:00,36.3,28.0,30.27,NW,321,0.0,2.0,72,0.00,,,0.00,weatherlink.com 1.10,2013-03-10 09:43:00,
2013-03-10 05:58:00,35.4,28.0,30.27,NW,321,0.0,0.0,74,0.00,,,0.00,weatherlink.com 1.10,2013-03-10 09:58:00,
2013-03-10 06:13:00,35.3,28.0,30.27,NW,321,0.0,1.0,74,0.00,,,0.00,weatherlink.com 1.10,2013-03-10 10:13:00,
2013-03-10 06:28:00,36.3,28.0,30.27,NNW,344,0.0,1.0,71,0.00,,,0.00,weatherlink.com 1.10,2013-03-10 10:28:00,
2013-03-10 06:43:00,36.7,27.0,30.27,North,355,0.0,1.0,68,0.00,,,0.00,weatherlink.com 1.10,2013-03-10 10:43:00,
2013-03-10 06:58:00,38.2,27.0,30.27,North,9,0.0,0.0,64,0.00,,,0.00,weatherlink.com 1.10,2013-03-10 10:58:00,
2013-03-10 07:14:00,38.6,27.0,30.27,North,9,0.0,0.0,63,0.00,,,0.00,weatherlink.com 1.10,2013-03-10 11:14:00,
2013-03-10 07:29:00,37.7,27.0,30.27,NNE,12,0.0,1.0,65,0.00,,,0.00,weatherlink.com 1.10,2013-03-10 11:29:00,
2013-03-10 07:44:00,36.6,27.0,30.27,NNE,26,0.0,1.0,69,0.00,,,0.00,weatherlink.com 1.10,2013-03-10 11:44:00,
2013-03-10 07:59:00,36.0,27.0,30.27,NNE,26,0.0,0.0,70,0.00,,,0.00,weatherlink.com 1.10,2013-03-10 11:59:00,
2013-03-10 08:14:00,36.3,28.0,30.27,NNE,26,0.0,1.0,71,0.00,,,0.00,weatherlink.com 1.10,2013-03-10 12:14:00,
2013-03-10 08:29:00,37.0,28.0,30.27,NNE,26,0.0,0.0,69,0.00,,,0.00,weatherlink.com 1.10,2013-03-10 12:29:00,
2013-03-10 08:44:00,37.8,28.0,30.28,NNE,26,0.0,1.0,67,0.00,,,0.00,weatherlink.com 1.10,2013-03-10 12:44:00,
2013-03-10 08:59:00,38.7,29.0,30.28,NNE,15,0.0,0.0,67,0.00,,,0.00,weatherlink.com 1.10,2013-03-10 12:59:00,
2013-03-10 09:14:00,40.0,30.0,30.29,NNE,15,0.0,0.0,68,0.00,,,0.00,weatherlink.com 1.10,2013-03-10 13:14:00,
2013-03-10 09:29:00,41.7,31.0,30.30,NNW,329,1.0,2.0,65,0.00,,,0.00,weatherlink.com 1.10,2013-03-10 13:29:00,
2013-03-10 09:44:00,42.7,31.0,30.30,NNW,329,0.0,1.0,64,0.00,,,0.00,weatherlink.com 1.10,2013-03-10 13:44:00,
2013-03-10 09:59:00,45.8,30.0,30.30,SSW,202,0.0,4.0,54,0.00,,,0.00,weatherlink.com 1.10,2013-03-10 13:59:00,
2013-03-10 10:14:00,48.1,30.0,30.30,South,171,1.0,4.0,50,0.00,,,0.00,weatherlink.com 1.10,2013-03-10 14:14:00,
2013-03-10 10:29:00,49.5,31.0,30.31,WSW,238,3.0,4.0,50,0.00,,,0.00,weatherlink.com 1.10,2013-03-10 14:29:00,
2013-03-10 10:44:00,50.5,32.0,30.30,WNW,284,3.0,8.0,49,0.00,,,0.00,weatherlink.com 1.10,2013-03-10 14:44:00,
2013-03-10 11:00:00,51.9,33.0,30.30,ESE,109,0.0,4.0,48,0.00,,,0.00,weatherlink.com 1.10,2013-03-10 15:00:00,
2013-03-10 11:15:00,53.5,34.0,30.30,South,181,3.0,5.0,47,0.00,,,0.00,weatherlink.com 1.10,2013-03-10 15:15:00,
2013-03-10 11:30:00,54.9,33.0,30.29,West,259,3.0,3.0,43,0.00,,,0.00,weatherlink.com 1.10,2013-03-10 15:30:00,
2013-03-10 11:45:00,56.7,33.0,30.28,WSW,255,3.0,6.0,41,0.00,,,0.00,weatherlink.com 1.10,2013-03-10 15:45:00,
2013-03-10 12:00:00,56.9,32.0,30.28,SSW,209,4.0,5.0,39,0.00,,,0.00,weatherlink.com 1.10,2013-03-10 16:00:00,
2013-03-10 12:29:00,57.0,33.0,30.27,SE,142,2.0,4.0,40,0.00,,,0.00,weatherlink.com 1.10,2013-03-10 16:29:00,
2013-03-10 12:44:00,57.6,33.0,30.27,East,86,2.0,4.0,39,0.00,,,0.00,weatherlink.com 1.10,2013-03-10 16:44:00,
2013-03-10 12:59:00,59.0,33.0,30.26,South,175,1.0,8.0,38,0.00,,,0.00,weatherlink.com 1.10,2013-03-10 16:59:00,
2013-03-10 13:15:00,60.8,33.0,30.25,West,264,4.0,9.0,36,0.00,,,0.00,weatherlink.com 1.10,2013-03-10 17:15:00,
2013-03-10 13:30:00,60.4,32.0,30.24,NW,321,1.0,9.0,35,0.00,,,0.00,weatherlink.com 1.10,2013-03-10 17:30:00,
2013-03-10 13:45:00,59.9,34.0,30.23,NNW,344,0.0,6.0,38,0.00,,,0.00,weatherlink.com 1.10,2013-03-10 17:45:00,
2013-03-10 14:01:00,61.8,34.0,30.23,West,263,5.0,5.0,36,0.00,,,0.00,weatherlink.com 1.10,2013-03-10 18:01:00,
2013-03-10 14:15:00,61.3,33.0,30.22,SW,221,2.0,6.0,35,0.00,,,0.00,weatherlink.com 1.10,2013-03-10 18:15:00,
2013-03-10 14:30:00,61.7,34.0,30.21,West,271,5.0,6.0,36,0.00,,,0.00,weatherlink.com 1.10,2013-03-10 18:30:00,
2013-03-10 14:45:00,62.8,35.0,30.21,SE,135,2.0,6.0,36,0.00,,,0.00,weatherlink.com 1.10,2013-03-10 18:45:00,
2013-03-10 15:01:00,63.3,34.0,30.20,NW,324,0.0,4.0,34,0.00,,,0.00,weatherlink.com 1.10,2013-03-10 19:01:00,
2013-03-10 15:15:00,64.2,34.0,30.20,South,190,4.0,6.0,33,0.00,,,0.00,weatherlink.com 1.10,2013-03-10 19:15:00,
2013-03-10 15:30:00,64.7,36.0,30.19,WNW,290,2.0,6.0,34,0.00,,,0.00,weatherlink.com 1.10,2013-03-10 19:30:00,
2013-03-10 15:45:00,65.7,32.0,30.19,SSW,208,3.0,9.0,29,0.00,,,0.00,weatherlink.com 1.10,2013-03-10 19:45:00,
2013-03-10 16:01:00,65.4,33.0,30.18,WNW,296,1.0,7.0,30,0.00,,,0.00,weatherlink.com 1.10,2013-03-10 20:01:00,
2013-03-10 16:15:00,66.1,32.0,30.18,ENE,73,2.0,6.0,28,0.00,,,0.00,weatherlink.com 1.10,2013-03-10 20:15:00,
2013-03-10 16:30:00,66.0,32.0,30.18,ENE,72,1.0,7.0,28,0.00,,,0.00,weatherlink.com 1.10,2013-03-10 20:30:00,
2013-03-10 16:45:00,66.2,32.0,30.17,ESE,109,2.0,5.0,28,0.00,,,0.00,weatherlink.com 1.10,2013-03-10 20:45:00,
2013-03-10 17:01:00,65.8,32.0,30.17,South,184,1.0,8.0,28,0.00,,,0.00,weatherlink.com 1.10,2013-03-10 21:01:00,
2013-03-10 17:15:00,66.2,34.0,30.17,WSW,252,1.0,4.0,30,0.00,,,0.00,weatherlink.com 1.10,2013-03-10 21:15:00,
2013-03-10 17:30:00,66.2,32.0,30.17,ESE,121,2.0,6.0,28,0.00,,,0.00,weatherlink.com 1.10,2013-03-10 21:30:00,
2013-03-10 17:45:00,64.9,33.0,30.17,SSW,202,1.0,4.0,30,0.00,,,0.00,weatherlink.com 1.10,2013-03-10 21:45:00,
2013-03-10 18:01:00,64.5,31.0,30.17,South,180,1.0,5.0,29,0.00,,,0.00,weatherlink.com 1.10,2013-03-10 22:01:00,
2013-03-10 18:15:00,64.9,33.0,30.18,South,187,3.0,4.0,30,0.00,,,0.00,weatherlink.com 1.10,2013-03-10 22:15:00,
2013-03-10 18:30:00,64.3,31.0,30.18,SW,219,0.0,7.0,29,0.00,,,0.00,weatherlink.com 1.10,2013-03-10 22:30:00,
2013-03-10 18:45:00,63.6,31.0,30.18,ENE,67,0.0,5.0,29,0.00,,,0.00,weatherlink.com 1.10,2013-03-10 22:45:00,
2013-03-10 19:15:00,62.0,31.0,30.17,ESE,108,0.0,3.0,31,0.00,,,0.00,weatherlink.com 1.10,2013-03-10 23:15:00,
2013-03-10 19:30:00,60.9,31.0,30.18,ESE,115,0.0,2.0,33,0.00,,,0.00,weatherlink.com 1.10,2013-03-10 23:30:00,
2013-03-10 19:45:00,60.1,31.0,30.17,ESE,116,0.0,2.0,34,0.00,,,0.00,weatherlink.com 1.10,2013-03-10 23:45:00,
2013-03-10 20:01:00,59.2,31.0,30.18,ESE,109,1.0,2.0,35,0.00,,,0.00,weatherlink.com 1.10,2013-03-11 00:01:00,
2013-03-10 20:15:00,58.6,32.0,30.18,ESE,118,0.0,1.0,36,0.00,,,0.00,weatherlink.com 1.10,2013-03-11 00:15:00,
2013-03-10 20:30:00,58.0,32.0,30.19,ESE,116,0.0,1.0,37,0.00,,,0.00,weatherlink.com 1.10,2013-03-11 00:30:00,
2013-03-10 20:45:00,57.6,31.0,30.19,ESE,118,0.0,2.0,37,0.00,,,0.00,weatherlink.com 1.10,2013-03-11 00:45:00,
2013-03-10 21:16:00,56.5,32.0,30.19,ESE,118,0.0,1.0,39,0.00,,,0.00,weatherlink.com 1.10,2013-03-11 01:16:00,
2013-03-10 21:31:00,56.0,31.0,30.20,ESE,115,0.0,1.0,39,0.00,,,0.00,weatherlink.com 1.10,2013-03-11 01:31:00,
2013-03-10 21:46:00,55.5,31.0,30.20,ESE,122,0.0,1.0,40,0.00,,,0.00,weatherlink.com 1.10,2013-03-11 01:46:00,
2013-03-10 22:01:00,55.0,31.0,30.20,ESE,115,0.0,1.0,41,0.00,,,0.00,weatherlink.com 1.10,2013-03-11 02:01:00,
2013-03-10 22:16:00,54.5,32.0,30.20,East,101,0.0,2.0,42,0.00,,,0.00,weatherlink.com 1.10,2013-03-11 02:16:00,
2013-03-10 22:31:00,54.2,31.0,30.20,SE,138,0.0,3.0,41,0.00,,,0.00,weatherlink.com 1.10,2013-03-11 02:31:00,
2013-03-10 22:46:00,53.8,31.0,30.21,ESE,114,1.0,3.0,42,0.00,,,0.00,weatherlink.com 1.10,2013-03-11 02:46:00,
2013-03-10 23:01:00,53.5,30.0,30.20,ESE,110,1.0,3.0,40,0.00,,,0.00,weatherlink.com 1.10,2013-03-11 03:01:00,
2013-03-10 23:16:00,53.3,29.0,30.20,ESE,103,0.0,2.0,40,0.00,,,0.00,weatherlink.com 1.10,2013-03-11 03:16:00,
2013-03-10 23:31:00,53.0,28.0,30.20,ESE,107,1.0,2.0,39,0.00,,,0.00,weatherlink.com 1.10,2013-03-11 03:31:00,
2013-03-10 23:46:00,52.6,28.0,30.19,SE,127,1.0,3.0,39,0.00,,,0.00,weatherlink.com 1.10,2013-03-11 03:46:00,